Location: Innsbruck
(47.2657°N, 11.3914°E)
Time: 01:49:33
(UTC+01:00)

FALCONSAT 3 - Pass Details

Date: 03 December 2021
Orbit: 431 x 434 km, 35.4° (Epoch: 23 January)

Event Time Altitude Azimuth Distance (km) Brightness Sun altitude
Rises 06:59:19 0° 229° (SW) 2,388 ? -7.3°
Reaches altitude 10° 07:02:40 10° 195° (SSW) 1,525 ? -6.8°
Maximum altitude 07:03:53 12° 174° (S) 1,439 ? -6.6°
Drops below altitude 10° 07:05:06 10° 154° (SSE) 1,528 ? -6.4°
Sets 07:08:28 0° 119° (ESE) 2,399 ? -5.9°
